STARLINK-33894, 63697

Orbit data source: Space-Track

STARLINK-33894, 63697 is a payload satellite owned by SpaceX/Seattle (US) in LEO that was launched on Mon, 28 Apr 2025 UTC via an FALCON 9 launch vehicle from the Air Force Western Test Range (AFWTR). Payload-class satellites include a variety of spacecraft equipped with specific instruments for various scientific and technological missions. These include communications satellites like Starlink; space stations such as the ISS; scientific satellites like the Hubble; Earth observation satellites from companies like Planet Labs, Umbra, and HawkEye 360; GPS; miniature CubeSats for education and research; and military/defense satellites.

Loading next visibility...
Identifier
63697, 2025-087A
Orbit
LEO
Country
Flag of USUS
Related business
Manufacturer
SpaceX/Seattle
Mission
Operational Commercial Communications
Bus & Motor
STARLINK V2MO, Unknown motor
Mass
575 kg wet, ~530 kg dry
Launch date (UTC)
2025-04-28 (8 months ago)
Launch vehicle
FALCON 9
Launch site
Air Force Western Test Range (AFWTR)
Object type
Payload
Rocket body
Debris
Shape & HBR
Box + 2 Pan, 17.7 m
Radar Cross Section
36.964 m², Large (>1 m²)

Expand to show TLE details & history
Last TLE update: 7 hours ago

TLE from 7 hours ago
0 STARLINK-33894
1 63697U 25087A   25349.89862290  .00015752  00000-0  54274-3 0  9995
2 63697  53.1592 248.5607 0001504 107.8071 252.3094 15.30205518 36378
Epoch: 2025-12-15T21:34Z
TLE epoch observation values (Epoch: 2025-12-15T21:34:01.018Z)
Latitude
-0.00002°
Longitude
-159.73413°
Altitude
476.412 km
Speed
7.629 km/s
True Right ascension
16h 34m 14s
True Declination
0° 00' 00"
Sunlit
Object was in daylight at epoch
Visualization orbit readout
Latitude
Unknown
Longitude
Unknown
Altitude
Unknown
Speed
Unknown
Apparent Right ascension
Unknown
Apparent Declination
Unknown
Sunlit
N/A
Visualization observer readout
Local Sidereal Time
03:10:34
Azimuth
Unknown
Elevation
Unknown
Doppler factor
Unknown
Orbital elements
Apogee altitude
476.486 km
Perigee altitude
474.424 km
Semi-major axis
6,853.592 km
Eccentricity
0.00015
Inclination
53.1592°
RAAN
248.5607°
Arg. of periapsis
107.8071°
True anomaly
252.29298°
Mean anomaly
252.3094°
Eccentric anomaly
252.30119°
Mean motion
3.8253 °/min
Orbital period
94.11 mins
BSTAR
0.00054274
Loading maneuver chart data...
Computing Atmospheric mass density...
Loading historical data...
Loading historical data...
Loading historical data...
Loading historical data...
Loading historical data...
Loading historical data...
Loading historical data...

Documentation

Showing up to 5 results
|